This is the latest recevied weather packets stored in our database for station/object K7KAR-2. If no packets are shown the sender has not sent any weather packets the latest 10 day(s).
| Time | Temp. | Humidity | Pressure | Rain* | Wind** | Luminosity | Snow |
|---|---|---|---|---|---|---|---|
| 1788477015 | 28.89° C | 18% | 1008.4 hPa | 0 mm | - | 357 W/m² | - |
| 1788476712 | 28.89° C | 18% | 1008.6 hPa | 0 mm | - | 386 W/m² | - |
| 1788476410 | 28.33° C | 18% | 1008.7 hPa | 0 mm | - | 425 W/m² | - |
| 1788476103 | 27.78° C | 19% | 1008.6 hPa | 0 mm | - | 438 W/m² | - |
| 1788475799 | 28.33° C | 18% | 1008.8 hPa | 0 mm | - | 465 W/m² | - |
| 1788475495 | 27.78° C | 19% | 1008.6 hPa | 0 mm | - | 267 W/m² | - |
| 1788475191 | 27.78° C | 19% | 1008.7 hPa | 0 mm | - | 257 W/m² | - |
| 1788474890 | 27.78° C | 20% | 1008.9 hPa | 0 mm | - | 208 W/m² | - |
| 1788474589 | 28.33° C | 19% | 1008.7 hPa | 0 mm | - | 169 W/m² | - |
| 1788474284 | 27.22° C | 20% | 1008.7 hPa | 0 mm | - | 584 W/m² | - |
| 1788473983 | 27.22° C | 20% | 1008.8 hPa | 0 mm | - | 165 W/m² | - |
| 1788473678 | 28.33° C | 19% | 1008.6 hPa | 0 mm | - | 138 W/m² | - |
| 1788473376 | 28.33° C | 18% | 1008.7 hPa | 0 mm | - | 220 W/m² | - |
| 1788473076 | 28.33° C | 18% | 1008.6 hPa | 0 mm | - | 624 W/m² | - |
| 1788472773 | 28.33° C | 19% | 1008.5 hPa | 0 mm | - | 573 W/m² | - |
| 1788472470 | 27.78° C | 19% | 1008.7 hPa | 0 mm | - | 663 W/m² | - |
| 1788472168 | 28.89° C | 19% | 1008.4 hPa | 0 mm | - | 142 W/m² | - |
| 1788471864 | 28.89° C | 18% | 1008.6 hPa | 0 mm | - | 657 W/m² | - |
| 1788471564 | 28.33° C | 19% | 1008.8 hPa | 0 mm | - | 685 W/m² | - |
| 1788471259 | 28.33° C | 19% | 1008.8 hPa | 0 mm | - | 705 W/m² | - |
| 1788470955 | 28.33° C | 19% | 1008.8 hPa | 0 mm | - | 727 W/m² | - |
| 1788470651 | 28.33° C | 19% | 1008.7 hPa | 0 mm | - | 667 W/m² | - |
| 1788470345 | 28.33° C | 18% | 1008.8 hPa | 0 mm | - | 738 W/m² | - |
| 1788470041 | 27.78° C | 19% | 1008.7 hPa | 0 mm | - | 795 W/m² | - |
| 1788469737 | 27.22° C | 20% | 1009.1 hPa | 0 mm | - | 233 W/m² | - |
* Rain latest hour (hover to see other rain measurements)
** Current wind speed in m/s (hover to see current wind gust speed)